{"data":{"norad_id":61064,"epoch":"2026-09-21T06:51:31.989888Z","epoch_age_seconds":124148,"freshness":"FRESH","line1":"1 61064U 24164Q   26264.28578692  .00001864  00000+0  71818-4 0  9998","line2":"2 61064  53.1594 261.2192 0001394  81.5481 278.5678 15.31706078113447","mean_motion":15.31706078,"eccentricity":0.0001394,"inclination_deg":53.1594,"raan_deg":261.2192,"arg_perigee_deg":81.5481,"mean_anomaly_deg":278.5678,"bstar":7.1818e-5,"rev_number":11344,"period_min":94.01281490508,"perigee_km":469.76714615637,"apogee_km":471.6766080113,"semimajor_km":6848.8588770838,"source":"CELESTRAK","updated_at":"2026-09-22T09:00:49.334100Z"}}